When you browse on this site, cookies collect data to enhance your experience and personalize the content and advertising you see.
Visit our Privacy Policy to learn more. By continuing to use the site, you agree to this use of cookies and data.
  • In Österreich
  • Länderverzeichnis
  • Für 7 Tage
  • Wassertemperatur
  • Satellitenkarten
  • Wetterkarte
  • News
  • Widgets
  • user-avatar
    Anmelden

    Stündliche Wetter Glab

    Heute, 17 Dezember, Montag

    Zeit Temperatur Niederschläge Wind Luftdruck Luftfeuchtigkeit
    00:00 -4°C° 0 mm 3 m/S 761 mmHg 79%
    01:00 -4°C° 0 mm 3 m/S 761 mmHg 78%
    02:00 -4°C° 0 mm 3 m/S 762 mmHg 78%
    03:00 -4°C° 0 mm 3 m/S 762 mmHg 79%
    04:00 -4°C° 0 mm 3 m/S 762 mmHg 79%
    05:00 -4°C° 0 mm 3 m/S 762 mmHg 79%
    06:00 -3°C° 0 mm 2 m/S 762 mmHg 80%
    07:00 -3°C° 0 mm 2 m/S 762 mmHg 81%
    08:00 -3°C° 0 mm 2 m/S 763 mmHg 80%
    09:00 -3°C° 0 mm 2 m/S 763 mmHg 79%
    10:00 -3°C° 0 mm 2 m/S 764 mmHg 78%
    11:00 0°C° 0 mm 1 m/S 764 mmHg 76%
    12:00 0°C° 0 mm 1 m/S 764 mmHg 73%
    13:00 +1°C° 0 mm 1 m/S 765 mmHg 71%
    14:00 0°C° 0 mm 1 m/S 765 mmHg 74%
    15:00 0°C° 0 mm 1 m/S 765 mmHg 77%
    16:00 -1°C° 0 mm 1 m/S 765 mmHg 80%
    17:00 -1°C° 0 mm 1 m/S 766 mmHg 81%
    18:00 -3°C° 0 mm 2 m/S 766 mmHg 81%
    19:00 -3°C° 0 mm 2 m/S 766 mmHg 82%
    20:00 -3°C° 0 mm 2 m/S 767 mmHg 83%
    21:00 -3°C° 0 mm 2 m/S 767 mmHg 83%
    22:00 -3°C° 0 mm 2 m/S 767 mmHg 84%
    23:00 -3°C° 0 mm 2 m/S 767 mmHg 85%

    Morgen, 18 Dezember, Dienstag

    Zeit Temperatur Niederschläge Wind Luftdruck Luftfeuchtigkeit
    00:00 -3°C° 0 mm 2 m/S 767 mmHg 86%
    01:00 -3°C° 0 mm 2 m/S 768 mmHg 88%
    02:00 -3°C° 0 mm 2 m/S 767 mmHg 89%
    03:00 -3°C° 0 mm 2 m/S 767 mmHg 90%
    04:00 -4°C° 0 mm 3 m/S 767 mmHg 92%
    05:00 -4°C° 0 mm 3 m/S 767 mmHg 92%
    06:00 -2°C° 0 mm 3 m/S 767 mmHg 93%
    07:00 -2°C° 0 mm 3 m/S 768 mmHg 94%
    08:00 -2°C° 0 mm 3 m/S 768 mmHg 93%
    09:00 -1°C° 0 mm 3 m/S 768 mmHg 93%
    10:00 -1°C° 0 mm 3 m/S 768 mmHg 93%
    11:00 -1°C° 0 mm 3 m/S 768 mmHg 92%
    12:00 0°C° 0 mm 3 m/S 767 mmHg 92%
    13:00 0°C° 0 mm 3 m/S 767 mmHg 91%
    14:00 0°C° 0 mm 3 m/S 767 mmHg 93%
    15:00 0°C° 0 mm 3 m/S 767 mmHg 94%
    16:00 0°C° 0 mm 3 m/S 767 mmHg 96%
    17:00 0°C° 0 mm 3 m/S 767 mmHg 96%
    18:00 0°C° 0 mm 3 m/S 767 mmHg 96%
    19:00 0°C° 0 mm 3 m/S 767 mmHg 96%
    20:00 0°C° 0 mm 3 m/S 767 mmHg 96%
    21:00 -1°C° 0 mm 4 m/S 767 mmHg 96%
    22:00 -1°C° 0 mm 4 m/S 767 mmHg 96%
    23:00 -1°C° 0 mm 4 m/S 767 mmHg 96%

    übermorgen, 19 Dezember, Mittwoch

    Zeit Temperatur Niederschläge Wind Luftdruck Luftfeuchtigkeit
    00:00 -1°C° 0 mm 4 m/S 766 mmHg 96%
    01:00 -1°C° 0 mm 4 m/S 766 mmHg 96%
    02:00 -1°C° 0 mm 4 m/S 766 mmHg 95%
    03:00 -1°C° 0 mm 5 m/S 766 mmHg 95%
    04:00 -1°C° 0 mm 5 m/S 766 mmHg 95%
    05:00 -1°C° 0 mm 5 m/S 765 mmHg 93%
    06:00 -2°C° 0 mm 6 m/S 765 mmHg 92%
    07:00 -3°C° 0 mm 6 m/S 765 mmHg 90%
    08:00 -2°C° 0 mm 6 m/S 765 mmHg 87%
    09:00 -2°C° 0 mm 7 m/S 765 mmHg 84%
    10:00 -2°C° 0 mm 8 m/S 765 mmHg 80%
    11:00 -1°C° 0 mm 8 m/S 764 mmHg 79%
    12:00 -1°C° 0 mm 8 m/S 764 mmHg 77%
    13:00 -1°C° 0 mm 8 m/S 763 mmHg 75%
    14:00 -1°C° 0 mm 8 m/S 763 mmHg 77%
    15:00 -2°C° 0 mm 8 m/S 763 mmHg 78%
    16:00 -4°C° 0 mm 8 m/S 762 mmHg 80%
    17:00 -4°C° 0 mm 8 m/S 762 mmHg 80%
    18:00 -4°C° 0 mm 8 m/S 762 mmHg 81%
    19:00 -4°C° 0 mm 8 m/S 762 mmHg 81%
    20:00 -3°C° 0 mm 7 m/S 762 mmHg 81%
    21:00 -3°C° 0 mm 7 m/S 762 mmHg 81%
    22:00 -3°C° 0 mm 7 m/S 762 mmHg 81%
    23:00 -3°C° 0.1 mm 7 m/S 762 mmHg 82%

    20 Dezember, Donnerstag

    Zeit Temperatur Niederschläge Wind Luftdruck Luftfeuchtigkeit
    00:00 -3°C° 0.1 mm 7 m/S 762 mmHg 83%
    01:00 -3°C° 0.1 mm 7 m/S 762 mmHg 84%
    02:00 -3°C° 0.1 mm 7 m/S 761 mmHg 84%
    03:00 -3°C° 0.1 mm 6 m/S 761 mmHg 85%
    04:00 -3°C° 0.1 mm 6 m/S 761 mmHg 85%
    05:00 -3°C° 0.1 mm 6 m/S 761 mmHg 86%
    06:00 -3°C° 0.1 mm 6 m/S 761 mmHg 86%
    07:00 -2°C° 0.1 mm 6 m/S 761 mmHg 86%
    08:00 -2°C° 0.2 mm 6 m/S 762 mmHg 87%
    09:00 -2°C° 0.2 mm 6 m/S 762 mmHg 87%
    10:00 -1°C° 0.2 mm 5 m/S 762 mmHg 88%
    11:00 -1°C° 0.2 mm 5 m/S 762 mmHg 88%
    12:00 -1°C° 0.2 mm 5 m/S 762 mmHg 88%
    13:00 -1°C° 0.2 mm 5 m/S 762 mmHg 88%
    14:00 -1°C° 0.1 mm 4 m/S 762 mmHg 88%
    15:00 -1°C° 0.1 mm 4 m/S 762 mmHg 88%
    16:00 -1°C° 0.1 mm 4 m/S 762 mmHg 88%
    17:00 -1°C° 0 mm 4 m/S 762 mmHg 87%
    18:00 -1°C° 0 mm 4 m/S 762 mmHg 87%
    19:00 -1°C° 0 mm 4 m/S 762 mmHg 87%
    20:00 -2°C° 0 mm 4 m/S 762 mmHg 88%
    21:00 -1°C° 0 mm 3 m/S 762 mmHg 89%
    22:00 -1°C° 0 mm 3 m/S 762 mmHg 90%
    23:00 -1°C° 0.1 mm 3 m/S 762 mmHg 90%

    21 Dezember, Freitag

    Zeit Temperatur Niederschläge Wind Luftdruck Luftfeuchtigkeit
    00:00 -1°C° 0.1 mm 3 m/S 762 mmHg 91%
    01:00 -1°C° 0.1 mm 3 m/S 762 mmHg 92%
    02:00 -1°C° 0.2 mm 3 m/S 762 mmHg 92%
    03:00 -1°C° 0.2 mm 3 m/S 762 mmHg 92%
    04:00 -1°C° 0.2 mm 3 m/S 762 mmHg 92%
    05:00 -1°C° 0.2 mm 3 m/S 762 mmHg 93%
    06:00 -1°C° 0.2 mm 3 m/S 762 mmHg 93%
    07:00 -1°C° 0.2 mm 3 m/S 762 mmHg 93%
    08:00 -1°C° 0.1 mm 3 m/S 762 mmHg 92%
    09:00 -1°C° 0.1 mm 3 m/S 762 mmHg 92%
    10:00 -1°C° 0.1 mm 3 m/S 762 mmHg 91%
    11:00 -1°C° 0.1 mm 3 m/S 762 mmHg 91%
    12:00 -1°C° 0.1 mm 3 m/S 762 mmHg 91%
    13:00 0°C° 0.1 mm 3 m/S 762 mmHg 91%
    14:00 -1°C° 0 mm 3 m/S 762 mmHg 91%
    15:00 -1°C° 0 mm 3 m/S 762 mmHg 92%
    16:00 -1°C° 0 mm 3 m/S 762 mmHg 92%
    17:00 -2°C° 0 mm 4 m/S 762 mmHg 92%
    18:00 -2°C° 0 mm 4 m/S 762 mmHg 92%
    19:00 -2°C° 0 mm 4 m/S 761 mmHg 92%
    20:00 -2°C° 0 mm 4 m/S 761 mmHg 92%
    21:00 -2°C° 0 mm 4 m/S 761 mmHg 92%
    22:00 -2°C° 0 mm 4 m/S 761 mmHg 92%
    23:00 -2°C° 0 mm 4 m/S 761 mmHg 92%

    22 Dezember, Samstag

    Zeit Temperatur Niederschläge Wind Luftdruck Luftfeuchtigkeit
    00:00 -2°C° 0 mm 4 m/S 761 mmHg 92%
    01:00 -2°C° 0 mm 4 m/S 761 mmHg 92%
    02:00 -2°C° 0 mm 4 m/S 761 mmHg 92%
    03:00 -2°C° 0 mm 4 m/S 761 mmHg 91%
    04:00 -2°C° 0 mm 4 m/S 761 mmHg 91%
    05:00 -2°C° 0 mm 4 m/S 761 mmHg 91%
    06:00 -2°C° 0 mm 4 m/S 761 mmHg 91%
    07:00 -2°C° 0 mm 4 m/S 761 mmHg 90%
    08:00 -2°C° 0 mm 4 m/S 761 mmHg 90%
    09:00 -2°C° 0 mm 4 m/S 762 mmHg 90%
    10:00 -2°C° 0 mm 4 m/S 762 mmHg 89%
    11:00 -1°C° 0 mm 3 m/S 762 mmHg 89%
    12:00 -1°C° 0 mm 3 m/S 763 mmHg 89%
    13:00 0°C° 0 mm 3 m/S 763 mmHg 89%
    14:00 -1°C° 0 mm 3 m/S 763 mmHg 89%
    15:00 -1°C° 0 mm 3 m/S 763 mmHg 90%
    16:00 -1°C° 0 mm 3 m/S 764 mmHg 91%
    17:00 -1°C° 0 mm 3 m/S 764 mmHg 91%
    18:00 -1°C° 0 mm 3 m/S 764 mmHg 91%
    19:00 -1°C° 0 mm 3 m/S 765 mmHg 91%
    20:00 -1°C° 0 mm 3 m/S 765 mmHg 91%
    21:00 -1°C° 0 mm 3 m/S 765 mmHg 92%
    22:00 -1°C° 0 mm 2 m/S 766 mmHg 92%
    23:00 -1°C° 0 mm 2 m/S 766 mmHg 92%
    Mehr zeigen